Location: Vesunti
(61.5000°N, 22.8333°E)
Time: 23:29:51
(UTC+00:00)

Meteor 1-27 - Pass Details

Date: 17 February 2020
Orbit: 838 x 891 km, 81.3° (Epoch: 05 April)

Event Time Altitude Azimuth Distance (km) Brightness Sun altitude
Rises 03:48:15 0° 187° (S) 3,390 7.2 -17.2°
Reaches altitude 10° 03:50:39 10° 185° (S) 2,456 6.5 -16.9°
Maximum altitude 03:56:11 72° 103° (ESE) 887 4.5 -16.2°
Drops below altitude 10° 04:01:46 10° 20° (NNE) 2,475 6.9 -15.6°
Sets 04:04:12 0° 18° (NNE) 3,418 7.6 -15.3°
